Location: Clyde
(45.1830°S, 169.3170°E)
Time: 03:28:35
(UTC+13:00)

Cosmos 841 Rocket - Pass Details

Date: 24 January 2019
Orbit: 748 x 771 km, 74.0° (Epoch: 18 February)

Event Time Altitude Azimuth Distance (km) Brightness Sun altitude
Rises 22:52:17 0° 204° (SSW) 3,286 8.2 -13.4°
Reaches altitude 10° 22:54:42 10° 207° (SSW) 2,351 7.3 -13.7°
Maximum altitude 22:59:59 64° 287° (WNW) 865 3.9 -14.3°
Enters shadow 23:04:12 16° 5° (N) 1,947 5.1 -14.8°
